Location: Newark
(45.5000°N, 11.4167°E)
Time: 08:30:31
(UTC+00:00)

Vanguard 2 - Pass Details

Date: 23 August 2019
Orbit: 554 x 2937 km, 32.9° (Epoch: 18 September)

Event Time Altitude Azimuth Distance (km) Brightness Sun altitude
Rises 16:01:55 0° 264° (W) 4,418 13.0 21.2°
Reaches altitude 10° 16:04:50 10° 254° (WSW) 3,743 13.0 20.7°
Maximum altitude 16:13:40 33° 195° (SSW) 3,083 11.0 19.2°
Drops below altitude 10° 16:26:23 10° 140° (SE) 5,412 11.5 16.9°
Sets 16:31:42 0° 133° (SE) 6,639 11.9 16.0°
